GFSMW_sfc_thetae_000.txt.gz
Theta_e
311 314 317 315 314 317 318 318 319 320 321 318 319 318 319 321 323 325 326 325 322 322 320 320 319 319 317 316 317 317 317 317 318 317 317 319 323 325 330 332 334 334 335
312 315 315 314 314 316 318 319 320 319 320 319 322 321 321 322 323 324 325 326 324 325 322 321 319 319 317 316 317 317 316 316 318 315 317 314 319 325 327 332 333 331 334
310 313 314 312 313 316 318 320 320 320 319 321 322 321 320 321 322 323 324 323 324 326 323 322 320 319 317 316 316 317 317 315 318 319 319 315 312 318 328 328 330 329 332
311 313 314 312 313 314 317 320 320 318 320 321 320 319 318 316 319 320 321 322 323 324 323 322 321 320 318 316 318 320 318 318 317 319 324 322 322 316 318 327 328 330 331
311 312 313 314 314 317 317 319 318 319 321 321 320 320 317 319 319 319 319 320 323 325 324 322 320 319 318 318 320 319 319 319 319 319 321 321 320 322 322 318 323 327 329
309 312 315 314 314 315 316 317 316 317 321 321 321 319 318 318 317 316 317 318 319 324 321 322 319 319 318 319 319 320 320 319 321 323 324 322 319 319 321 321 322 322 325
311 313 314 313 313 314 315 316 317 317 319 319 320 319 320 318 316 316 317 315 316 316 317 319 320 318 320 321 321 320 323 319 322 322 321 321 323 324 325 323 321 320 324
312 313 314 313 313 314 315 316 316 314 315 318 319 318 320 318 316 318 318 317 316 317 318 320 321 322 323 324 322 323 324 323 321 322 322 322 326 327 326 323 320 318 319
311 313 314 312 310 312 314 314 316 315 314 318 319 320 321 320 319 318 318 318 318 320 320 320 320 322 323 322 324 324 324 325 325 325 324 324 327 327 325 325 324 319 315
311 313 313 311 310 312 312 311 316 314 316 318 317 322 325 322 321 319 318 318 318 319 320 321 321 322 322 322 324 323 322 325 326 327 327 326 325 325 326 324 324 323 320
312 313 312 311 310 311 309 312 315 314 315 317 318 324 324 323 322 321 318 319 319 320 321 321 322 322 322 322 322 322 323 325 326 327 326 324 325 325 324 325 324 323 323
312 312 311 311 310 309 310 314 314 314 313 316 316 321 324 322 322 320 320 320 320 321 321 323 323 323 322 323 324 323 324 324 324 325 326 325 327 324 325 325 324 323 324
311 311 311 311 311 310 311 313 315 314 313 316 314 322 321 321 322 320 321 321 321 321 324 324 324 324 324 323 323 323 322 323 324 325 326 326 326 325 324 324 323 324 325
312 312 311 310 312 312 312 312 315 313 315 314 314 319 320 320 321 321 321 321 322 321 323 324 326 326 325 325 325 323 321 320 323 325 326 327 326 325 324 325 324 324 323
311 312 311 310 309 310 312 314 314 311 314 313 316 319 319 320 322 322 320 321 321 322 323 324 325 325 325 327 325 324 325 323 321 322 325 325 325 323 323 326 324 324 322
312 313 313 311 310 311 313 315 314 310 314 313 313 319 319 324 322 322 319 322 321 321 321 322 323 322 325 309 313 322 325 325 324 322 325 324 322 320 317 318 318 320 319
312 313 314 313 311 311 314 314 313 311 314 313 314 315 315 322 319 320 318 319 316 315 316 316 316 315 318 307 310 315 325 325 324 323 324 327 327 322 325 313 312 313 312
313 314 315 314 312 312 313 314 312 312 315 313 315 313 315 322 317 316 317 317 314 314 312 312 311 312 314 305 307 311 326 325 323 323 322 324 324 323 318 316 315 315 315
314 315 316 315 312 312 313 314 311 310 314 314 314 313 314 320 318 315 316 315 314 312 312 311 309 309 307 303 304 317 322 322 319 319 318 318 317 306 303 314 312 307 304
315 315 316 314 313 313 313 314 310 308 312 314 315 314 313 318 319 315 316 316 314 313 313 311 309 307 303 301 305 314 319 315 313 312 314 307 311 299 301 312 312 308 307
314 316 316 313 314 314 314 313 310 308 310 314 316 314 313 316 320 318 318 318 317 315 311 310 308 308 304 299 301 305 314 313 309 311 311 306 297 300 300 304 309 307 309
314 317 316 314 314 315 315 314 310 311 311 312 313 314 313 318 322 320 318 319 317 315 313 310 307 307 305 299 297 301 304 305 310 309 309 302 296 297 298 303 295 296 301
316 318 317 314 314 315 316 314 314 312 312 311 310 310 314 317 323 321 319 317 318 316 314 313 309 310 306 299 295 296 298 301 307 308 304 295 294 293 294 293 294 298 302
317 319 317 314 314 315 316 315 316 315 313 310 309 308 314 320 323 323 322 320 317 316 315 314 311 311 308 300 294 298 300 300 304 301 297 295 295 295 295 293 294 299 302
319 319 317 316 316 316 316 316 318 317 314 311 310 310 315 321 321 322 321 320 319 318 315 315 315 312 310 306 296 296 300 300 301 296 293 292 292 293 294 296 293 296 301
319 319 319 318 318 317 316 317 319 318 315 313 312 311 316 320 321 318 308 295 301 302 303 303 310 313 308 299 295 293 296 295 294 296 294 292 291 292 294 299 301 303 304

GFSMW_sfc_thetae_003.txt.gz
Theta_e
307 310 311 311 313 314 316 317 317 318 318 317 316 317 317 319 320 322 324 324 325 322 319 317 318 317 315 314 315 315 314 315 316 315 315 318 320 324 327 328 330 331 333
308 310 310 311 314 315 316 317 317 318 318 316 319 318 318 319 320 321 326 327 324 322 320 319 318 317 315 314 315 315 315 314 316 313 312 309 314 324 327 327 329 330 333
308 310 310 311 313 315 316 317 317 317 318 318 319 318 318 318 319 319 320 321 322 323 322 320 318 317 315 314 314 315 316 314 316 316 314 311 308 318 324 327 327 331 331
309 311 311 309 313 314 316 318 318 317 317 321 318 316 315 314 316 317 318 319 322 323 322 321 318 317 316 314 314 317 316 316 314 316 320 318 318 315 316 325 326 329 329
309 310 310 311 313 314 315 317 318 316 319 319 318 318 315 316 317 317 316 317 320 324 322 320 318 317 316 315 316 316 316 316 316 317 319 321 320 321 321 317 321 327 329
308 310 311 311 311 313 315 316 315 317 318 319 319 318 316 316 314 315 315 315 316 322 319 320 318 317 316 318 318 317 317 317 318 319 321 320 318 317 320 319 321 321 326
309 310 310 310 311 312 314 314 313 316 318 319 319 317 317 317 315 314 314 313 314 317 315 317 317 316 318 319 318 318 318 317 319 320 320 320 320 324 323 322 321 320 324
309 310 311 311 311 312 314 315 313 315 315 318 318 316 318 315 314 315 315 314 314 314 315 318 319 320 321 321 320 320 320 319 319 320 321 321 322 326 326 323 321 318 320
309 310 311 310 311 312 313 314 313 312 313 317 317 317 318 315 316 315 315 314 315 317 317 318 319 321 321 321 322 322 322 322 321 321 321 325 323 326 327 326 325 320 316
309 311 311 309 310 312 313 313 314 313 313 317 317 319 321 318 316 316 316 315 315 316 317 318 319 320 320 322 322 321 326 326 324 322 324 326 325 325 326 325 324 323 321
310 311 310 310 309 310 310 311 314 312 314 316 316 322 320 320 318 317 316 316 315 317 317 319 320 320 320 321 320 322 325 325 326 326 324 325 325 324 324 325 325 323 323
310 310 310 308 307 308 307 310 313 312 314 315 316 320 321 320 318 317 316 316 316 317 319 320 321 321 320 320 322 321 322 325 325 325 325 324 325 324 324 324 323 323 324
309 308 309 309 308 308 308 312 312 312 312 314 315 319 319 319 317 316 317 317 317 318 320 321 321 321 321 321 320 321 320 321 325 325 326 325 324 324 324 324 324 324 324
311 310 309 309 308 309 310 313 313 312 312 312 317 318 317 318 318 318 318 318 319 319 319 320 323 322 322 322 321 320 322 323 324 325 326 324 325 324 324 324 324 324 323
309 310 309 309 308 308 310 311 314 312 313 311 317 318 316 318 319 319 319 319 319 320 321 322 322 322 322 323 320 320 320 322 323 325 326 325 324 322 322 325 324 324 323
311 311 311 310 310 310 310 311 313 311 312 311 317 317 316 318 319 316 317 318 318 319 321 320 321 321 324 306 312 320 323 324 323 324 324 323 321 318 315 316 316 321 322
312 311 311 310 310 312 313 311 312 310 311 310 315 317 316 318 318 317 317 317 315 314 316 316 317 318 317 304 307 313 324 323 322 324 324 325 324 323 324 313 313 314 313
312 313 313 312 310 311 312 312 311 311 311 310 313 313 314 317 316 315 316 313 311 312 312 312 313 317 315 303 306 312 324 323 323 324 325 324 323 322 322 322 321 318 317
314 314 315 314 311 310 312 312 309 311 312 311 312 311 314 315 314 313 314 311 310 309 310 310 312 314 312 302 302 316 323 322 321 322 323 324 323 307 306 318 313 307 307
314 314 315 314 311 310 311 312 309 311 311 312 312 311 313 316 314 314 313 311 310 309 310 309 309 307 309 299 302 315 319 316 317 317 316 309 317 300 299 313 308 306 304
313 314 314 313 311 311 312 311 308 310 313 314 312 310 311 317 315 314 314 311 310 309 308 308 306 305 308 306 301 305 318 316 312 313 311 310 300 297 297 303 309 307 304
311 313 313 313 312 312 312 311 308 310 313 313 313 310 308 317 317 315 314 313 311 308 307 306 305 305 302 301 299 301 306 306 311 311 310 305 296 296 296 302 299 297 301
312 314 314 312 312 312 313 311 311 308 310 312 312 310 308 312 318 315 314 314 312 310 308 307 305 306 303 299 297 298 298 300 308 310 306 296 294 294 295 294 293 296 303
312 314 314 311 310 312 313 314 312 310 309 310 309 310 309 310 317 318 317 316 314 312 312 309 306 306 304 300 295 299 302 301 304 300 298 296 296 296 295 295 297 301 306
313 315 314 312 312 313 313 314 313 311 309 309 308 307 311 313 316 317 316 318 318 316 315 314 313 308 306 303 298 297 300 304 302 296 295 294 295 295 293 291 293 298 306
315 315 315 314 313 313 313 313 315 313 310 308 307 307 310 314 317 316 308 296 298 302 300 302 310 312 306 299 295 293 294 294 293 296 294 293 294 297 296 295 295 298 303

GFSMW_sfc_thetae_006.txt.gz
Theta_e
307 308 309 310 313 315 316 316 317 317 317 317 316 317 318 320 321 324 326 326 326 325 322 320 319 320 318 318 318 318 318 319 320 318 319 322 325 326 327 328 331 332 333
306 308 307 310 313 315 316 316 317 316 318 317 318 319 319 320 321 323 325 327 326 325 322 320 320 319 318 317 317 318 317 318 320 317 317 315 320 324 328 327 328 331 335
306 307 307 309 313 314 316 317 317 318 318 318 319 319 318 319 319 320 322 323 324 325 324 322 321 320 318 316 317 318 319 317 318 320 318 314 312 319 325 328 328 330 334
307 307 307 309 312 314 316 317 317 317 318 319 317 317 317 316 317 319 320 321 323 324 323 323 321 320 318 317 317 319 320 320 318 320 323 321 322 317 315 325 327 331 331
307 306 307 311 314 315 316 317 317 317 318 319 318 318 317 317 318 319 319 321 321 325 323 322 320 319 319 319 318 319 319 321 320 321 322 322 323 323 322 316 322 327 329
307 307 309 312 311 314 315 316 316 316 318 318 319 319 317 317 316 317 317 317 319 322 322 321 321 320 320 319 319 320 320 320 321 323 325 323 319 320 320 320 320 321 326
306 307 309 309 310 312 314 315 315 316 317 319 320 318 318 318 317 317 317 316 317 320 319 320 320 321 321 321 321 321 321 321 322 323 324 323 323 324 325 324 321 320 324
307 308 309 310 311 312 314 314 314 315 317 319 319 318 319 317 316 317 317 316 316 318 319 321 322 323 324 323 323 323 322 322 324 323 324 324 324 328 327 324 323 318 320
306 307 309 310 311 312 314 314 313 315 316 318 318 318 319 317 317 318 317 316 317 319 320 321 322 323 324 324 324 324 325 324 324 324 325 326 325 327 328 328 327 321 315
307 308 308 309 310 312 313 314 314 313 314 317 318 319 319 318 318 318 317 317 318 320 320 321 322 323 324 324 324 325 327 327 325 326 327 326 327 327 327 326 326 324 323
308 309 308 310 310 312 312 313 314 313 314 317 317 321 320 319 318 319 318 318 318 319 320 322 322 323 323 323 325 325 326 326 326 326 326 325 326 325 326 326 327 324 326
308 309 309 308 309 310 311 311 313 314 314 317 318 321 321 320 318 318 318 318 318 320 321 323 323 323 323 324 325 325 326 326 325 325 325 324 325 325 325 326 324 325 326
307 307 307 308 309 309 309 310 312 314 314 316 316 320 320 318 318 317 318 318 319 320 322 323 323 322 323 322 322 323 324 326 326 326 325 325 325 324 324 325 324 325 325
308 309 308 307 307 308 309 311 313 313 313 314 318 319 319 319 318 319 319 319 320 321 322 323 323 323 324 323 322 323 325 326 326 326 326 326 326 325 324 324 324 324 323
308 309 309 307 306 307 309 313 313 313 313 313 318 318 318 319 319 319 320 320 321 322 323 324 323 324 323 323 322 322 323 325 326 326 326 326 324 321 323 325 324 324 323
309 310 310 309 308 308 309 312 314 312 313 312 318 318 319 320 319 319 319 320 321 321 323 323 324 323 324 305 311 319 322 325 326 323 323 323 320 316 313 315 316 321 323
310 310 311 311 310 310 311 310 312 312 312 312 318 318 319 319 318 319 319 319 319 320 321 320 322 323 320 302 305 311 325 324 325 324 324 325 323 323 321 312 312 313 312
311 312 312 311 310 311 310 312 312 312 312 312 316 317 319 319 318 318 318 316 316 317 317 317 320 320 317 302 303 310 325 324 325 326 326 326 324 322 324 325 324 324 323
313 313 313 312 309 311 312 312 311 311 311 311 314 315 317 318 317 317 316 314 314 314 315 316 320 320 316 300 302 317 325 325 325 326 325 325 324 305 308 324 321 316 314
314 313 313 312 310 311 312 312 310 311 311 312 313 313 317 318 316 316 315 314 314 314 314 314 318 313 318 300 302 316 323 321 321 322 321 311 318 301 304 321 316 314 312
314 314 313 312 312 311 313 312 310 311 313 314 313 312 316 317 317 315 315 314 313 313 312 311 311 315 315 312 300 306 322 320 319 320 318 320 304 299 298 304 315 313 310
312 313 313 313 312 311 313 312 310 313 313 313 313 311 313 318 316 316 315 313 312 311 310 309 309 308 311 304 300 301 308 310 319 318 318 314 298 297 296 304 301 297 303
313 314 314 313 311 312 314 312 312 311 312 313 312 311 311 318 317 316 314 312 312 311 309 310 309 309 307 306 300 299 299 302 316 318 310 297 295 295 298 297 296 297 312
312 313 313 311 310 312 314 315 312 312 312 312 312 310 309 314 317 318 317 314 312 311 310 310 310 310 308 306 305 308 307 301 306 302 302 299 298 297 300 301 300 308 314
312 314 313 311 311 312 313 314 312 311 311 312 312 310 310 312 317 317 316 317 317 313 313 312 312 310 309 308 301 305 309 311 305 301 302 303 303 302 301 301 303 307 312
312 313 313 312 312 313 313 313 313 311 311 310 309 310 311 310 316 316 311 295 300 303 299 300 309 313 305 298 295 294 295 294 294 304 304 304 304 304 302 301 301 305 309

GFSMW_sfc_thetae_009.txt.gz
Theta_e
320 317 318 320 322 325 327 330 330 332 330 328 328 329 329 332 333 334 336 336 336 335 334 333 330 327 327 329 329 328 326 326 329 327 326 329 332 333 334 338 338 339 340
318 316 317 319 322 324 326 329 330 330 331 330 331 333 333 334 334 336 336 336 335 335 333 329 328 327 327 329 328 327 324 327 329 325 324 319 323 331 334 336 337 335 340
317 317 315 318 322 323 325 328 329 331 332 333 332 332 334 333 332 333 334 335 333 332 333 331 330 330 329 328 328 327 326 324 326 330 325 317 314 322 332 331 331 334 337
316 317 316 317 321 323 326 329 330 331 332 333 332 333 330 329 332 333 333 334 331 332 332 332 330 331 329 328 327 328 328 328 325 328 332 332 329 318 319 330 332 332 336
314 316 316 318 321 324 327 329 331 331 332 333 333 332 332 332 333 332 331 332 333 332 330 331 331 331 329 330 328 328 328 331 329 330 327 330 331 331 325 319 327 331 333
315 316 317 320 321 325 327 328 329 330 331 332 333 335 332 330 329 329 330 330 331 331 331 330 331 331 330 330 329 329 329 329 332 332 331 330 328 328 328 322 324 323 328
315 315 316 318 321 323 326 327 329 328 330 331 332 332 331 330 328 329 329 329 328 327 330 331 331 332 332 331 331 330 330 330 329 331 331 333 330 331 332 326 324 322 326
315 316 317 319 321 324 326 327 328 328 330 331 332 332 332 330 329 329 330 329 328 328 331 331 332 332 332 332 332 331 330 331 332 331 330 330 328 330 333 330 325 320 323
316 316 318 320 322 324 326 327 328 328 330 331 332 331 331 328 329 329 330 328 329 329 330 330 332 332 333 333 333 332 331 331 331 331 331 328 329 331 337 338 331 326 319
315 316 318 320 322 325 327 328 328 328 330 330 331 330 330 329 330 329 328 329 329 330 330 330 332 333 333 333 333 330 331 331 332 329 331 330 333 334 336 333 331 333 323
315 316 318 320 322 325 326 326 326 326 326 328 330 331 330 329 329 329 328 328 329 329 328 329 330 332 332 332 330 330 329 329 330 330 328 328 332 332 332 334 331 327 325
316 317 318 320 321 322 325 324 326 325 326 329 329 331 331 330 329 328 328 328 328 329 328 330 329 330 331 329 328 326 327 327 327 326 326 326 327 328 333 330 331 329 327
316 317 318 319 320 321 323 323 325 326 325 328 329 331 331 330 330 328 328 328 328 329 329 330 330 330 330 331 331 328 328 328 328 328 326 327 326 329 331 330 329 327 326
316 317 317 319 320 321 322 322 323 326 325 326 328 330 330 330 329 328 329 328 329 329 330 331 330 331 330 329 330 328 329 330 329 328 329 328 328 331 330 328 330 330 327
315 316 317 319 319 320 321 321 322 324 325 325 328 329 330 330 329 329 329 329 330 330 331 331 331 332 331 329 329 327 329 330 329 329 329 331 327 322 324 329 326 326 325
316 317 318 319 319 319 319 321 323 323 325 325 328 328 329 328 329 329 329 329 329 331 331 330 330 331 329 305 313 323 327 330 330 330 327 326 321 317 314 315 316 323 325
317 317 318 320 320 320 321 320 324 324 324 324 327 327 328 327 327 328 328 328 329 331 331 330 331 331 329 302 305 313 328 329 328 331 328 327 328 327 329 313 312 312 311
318 319 320 321 321 321 321 322 324 323 322 323 326 326 327 326 327 328 328 329 329 330 330 330 331 330 326 301 303 309 328 328 328 331 330 329 331 328 330 330 329 329 328
321 322 322 323 323 321 322 322 323 323 322 321 326 326 327 326 327 327 328 327 328 328 327 328 329 330 323 301 303 318 326 327 328 332 331 328 330 305 309 330 328 328 325
323 322 323 323 323 323 323 321 321 322 322 321 324 326 328 327 328 329 328 327 328 327 325 327 331 319 322 299 303 320 327 325 326 329 329 311 321 301 306 332 330 327 325
323 323 323 323 323 324 323 321 322 321 324 323 323 325 327 329 330 331 328 326 326 325 326 325 326 329 326 317 300 308 325 326 327 326 328 328 300 300 303 308 327 324 324
321 322 321 322 324 323 323 322 321 324 325 324 322 324 327 328 327 330 328 326 327 324 323 323 324 325 328 310 300 300 310 314 327 327 328 325 300 299 299 309 296 297 310
321 322 322 322 322 322 323 322 323 324 324 323 323 323 325 326 328 328 327 323 325 323 322 321 321 322 324 327 302 300 301 305 326 328 313 298 296 296 302 298 295 298 320
321 322 322 321 320 322 323 325 324 323 323 323 324 323 322 325 327 327 327 325 322 322 320 320 321 321 321 325 327 324 318 303 316 306 311 305 305 300 309 310 309 322 322
321 322 322 321 321 321 322 325 324 322 322 324 323 322 322 323 326 327 326 325 327 321 322 321 321 322 321 321 316 319 325 326 316 314 316 317 319 319 319 319 319 319 320
320 321 322 322 322 321 322 323 323 323 324 323 322 321 320 320 324 325 322 296 302 302 299 302 314 321 307 298 297 298 299 296 296 317 318 318 318 318 318 317 317 317 314

GFSMW_sfc_thetae_015.txt.gz
Theta_e
323 326 328 331 334 337 341 344 346 354 351 345 341 337 333 336 335 337 340 341 341 342 340 338 339 338 336 336 337 333 332 332 334 329 329 332 333 334 334 331 331 335 335
321 323 327 334 334 336 339 340 343 350 350 345 343 338 338 334 336 337 340 341 339 340 338 338 338 338 337 335 333 334 330 331 332 326 327 321 326 330 330 331 333 335 334
320 323 324 333 334 335 338 339 342 347 348 347 342 340 338 338 335 333 335 339 338 340 338 337 337 336 339 335 335 334 331 327 333 332 328 321 317 322 330 331 331 335 337
321 323 325 332 334 335 338 340 343 343 341 346 343 346 334 330 331 336 336 337 336 336 336 336 336 335 341 334 334 333 331 332 327 331 332 333 330 319 319 330 335 339 339
320 322 327 331 333 336 337 340 341 340 341 342 345 335 336 331 334 333 336 338 338 335 335 335 335 336 334 336 334 333 333 335 332 333 331 332 328 326 326 319 326 335 341
321 325 331 332 333 335 337 338 338 338 339 338 339 340 337 334 332 333 335 338 338 337 336 333 334 336 335 334 334 335 334 335 335 338 333 335 328 323 323 330 330 329 334
325 327 328 329 331 333 335 336 336 336 337 337 337 337 337 337 336 333 335 334 332 336 336 335 336 335 336 336 336 335 334 335 335 334 334 339 335 334 333 333 330 327 330
326 327 328 329 330 332 333 334 334 334 335 335 336 337 338 334 333 335 333 335 334 335 336 335 336 336 336 336 337 332 333 335 336 333 335 335 338 336 337 336 333 325 326
326 327 329 330 330 332 332 333 334 334 334 334 336 336 337 335 336 336 336 333 335 333 334 334 335 335 335 335 336 337 335 333 334 334 335 335 337 332 337 340 339 331 319
326 327 328 329 331 332 332 335 334 333 333 334 335 335 335 336 336 335 334 335 335 333 333 334 335 335 335 335 336 336 335 334 336 334 335 334 332 334 337 339 338 338 329
325 326 328 329 331 332 333 334 333 331 331 334 334 336 335 335 335 334 333 335 334 335 331 331 333 333 334 335 336 334 332 332 333 332 330 331 333 336 339 334 334 331 330
325 326 327 329 329 330 332 332 331 330 331 332 333 334 334 335 335 334 332 334 333 333 330 331 330 331 333 335 332 330 330 331 330 332 330 328 332 334 335 334 331 331 327
324 326 327 327 328 330 331 329 329 328 331 332 332 334 333 335 335 333 334 332 331 330 330 330 329 331 332 332 332 331 329 332 330 327 327 329 329 332 332 330 328 327 324
324 325 326 327 328 329 328 326 327 328 330 330 331 333 334 335 335 335 333 331 330 329 330 331 331 331 332 332 332 333 332 331 329 328 328 328 329 331 330 329 327 325 321
323 324 325 326 328 328 326 325 326 327 330 329 330 333 334 334 332 332 331 331 330 330 332 332 331 332 333 330 332 333 334 333 333 332 329 330 327 324 329 328 327 325 322
323 324 325 327 327 326 324 325 326 327 329 328 330 332 332 331 332 332 331 331 331 332 333 331 332 332 328 310 313 323 333 333 332 329 328 331 325 318 314 317 319 325 325
323 325 326 327 327 326 325 325 326 327 328 328 330 330 330 330 330 331 331 331 335 337 334 334 333 332 330 308 308 310 334 335 333 332 330 330 331 328 327 313 312 313 313
324 326 327 329 329 327 325 326 326 326 326 328 329 330 329 329 330 331 331 333 338 335 334 334 334 333 326 305 305 306 335 335 333 333 333 333 333 330 328 329 326 325 324
327 328 329 331 329 326 325 325 325 324 326 328 329 329 330 330 331 331 332 334 337 337 336 336 334 332 329 304 303 314 334 333 331 332 335 334 332 308 310 327 324 321 319
329 329 330 331 329 326 326 325 324 323 324 328 329 330 331 331 331 333 334 335 335 333 334 334 334 323 330 303 302 314 333 333 333 334 329 309 324 306 309 330 324 321 322
330 331 331 331 329 327 326 324 324 323 325 329 330 331 332 332 334 334 335 335 334 333 335 333 334 333 330 323 303 306 331 333 331 329 330 326 301 303 307 316 331 326 327
328 331 330 331 330 327 325 324 324 325 326 327 330 332 333 332 333 334 332 332 333 334 334 333 331 331 332 314 304 303 311 317 329 328 330 320 299 303 308 319 303 303 317
328 331 331 331 329 327 326 324 326 325 326 326 330 332 333 333 334 334 331 328 331 330 332 330 332 329 330 328 304 306 306 310 334 333 313 300 298 298 305 301 304 305 330
327 330 331 330 328 327 326 326 326 325 325 325 328 330 331 331 333 331 330 326 326 327 328 327 328 330 329 329 330 330 325 309 321 310 317 315 311 305 311 313 313 329 329
327 330 330 331 329 327 326 326 327 325 325 326 326 328 329 331 331 331 328 328 330 322 325 328 329 329 329 329 321 322 330 332 325 328 329 328 329 328 323 323 325 327 329
327 329 331 331 330 327 325 326 326 325 326 327 325 325 326 328 330 328 329 298 304 303 305 302 314 326 310 305 303 304 304 301 305 326 326 326 326 326 326 325 324 325 321

GFSMW_sfc_thetae_021.txt.gz
Theta_e
315 316 320 320 319 330 332 336 340 343 345 343 340 336 333 332 333 332 334 335 335 335 332 330 329 329 327 326 326 324 323 322 323 319 317 321 323 322 324 325 325 326 327
314 316 316 317 323 326 333 337 343 344 343 342 338 336 331 332 332 331 331 332 332 331 330 328 327 327 326 325 324 322 320 320 321 316 317 310 315 320 323 323 324 326 325
311 312 313 314 327 329 334 337 342 341 341 340 339 334 330 329 327 328 330 331 332 333 331 329 328 326 325 323 322 322 320 317 318 319 315 312 309 313 318 321 322 322 325
313 314 313 322 327 330 333 335 341 340 341 338 334 329 326 324 326 326 329 331 331 331 331 329 328 326 325 323 323 324 321 318 316 318 321 319 319 310 308 316 321 323 326
312 313 314 327 329 330 332 337 339 337 336 333 331 327 324 326 327 328 328 329 327 328 330 328 326 325 324 324 323 323 322 321 317 317 316 318 319 319 313 308 313 320 321
311 315 327 329 329 333 334 337 335 333 333 331 330 328 326 326 324 326 326 326 325 327 327 328 325 325 325 324 324 324 323 321 321 320 319 317 313 314 314 312 312 313 316
322 324 325 327 329 331 333 333 331 328 331 332 328 330 325 326 325 324 324 324 324 324 325 325 323 324 326 326 325 323 323 324 322 322 320 321 318 315 318 316 313 313 318
322 323 325 327 329 331 331 330 328 328 329 328 329 329 327 325 326 325 325 325 324 325 324 325 326 327 328 328 326 324 324 324 322 321 321 321 321 321 320 319 315 313 318
321 323 323 326 329 329 328 328 328 327 328 327 329 328 327 327 326 326 325 324 325 325 326 325 326 328 328 328 326 324 322 324 322 323 322 323 322 323 323 322 322 318 314
321 322 323 326 328 328 328 328 327 327 327 329 328 327 328 328 327 326 324 325 324 325 325 325 327 328 327 328 325 323 326 327 325 324 322 323 323 324 326 326 324 322 317
320 321 324 326 327 327 328 327 326 327 326 328 326 327 328 328 325 325 327 324 323 327 325 326 327 328 326 326 324 323 325 326 326 323 322 322 323 322 323 323 323 320 319
321 323 325 325 325 326 326 325 325 326 325 328 327 328 328 325 325 324 325 324 321 322 324 326 330 328 328 325 324 325 327 326 323 324 324 321 325 324 325 325 320 320 320
321 323 323 323 324 324 325 325 324 323 325 329 328 328 328 325 324 324 327 323 322 325 326 326 326 327 327 326 325 325 327 326 323 323 322 321 324 324 326 323 321 321 321
320 321 321 322 324 325 325 324 322 323 324 328 327 328 325 325 325 325 324 327 324 324 326 328 328 329 327 327 329 329 327 325 323 322 324 324 326 324 323 323 322 321 319
319 320 320 321 323 322 323 322 321 322 323 328 328 328 326 326 325 325 323 325 325 323 327 327 326 324 322 321 325 328 326 324 323 324 324 324 325 323 322 323 321 320 319
320 320 321 323 323 323 320 320 320 322 326 327 328 329 329 328 327 326 327 321 324 326 326 327 324 320 320 305 309 319 326 325 325 323 321 322 319 316 314 315 316 319 320
320 321 322 323 322 320 319 318 320 322 327 327 329 330 328 326 327 327 322 323 324 327 325 324 320 317 313 302 303 309 325 326 324 325 325 324 321 319 318 311 312 311 311
320 321 322 322 321 319 318 319 320 320 324 327 327 326 326 324 325 326 324 324 322 322 322 324 320 317 313 303 302 312 325 324 324 324 325 324 321 320 322 321 321 321 321
320 321 324 323 319 319 319 319 318 319 320 325 323 324 325 323 326 326 323 323 323 323 322 324 320 317 313 304 301 319 324 324 324 326 326 324 322 307 308 322 321 320 318
321 324 324 322 319 319 318 318 316 317 318 325 324 325 325 326 326 327 323 323 324 325 328 325 322 315 315 305 301 318 326 323 322 321 320 311 317 303 306 322 320 318 318
320 325 324 321 319 319 318 316 316 316 320 326 326 325 325 327 326 325 324 325 325 325 324 323 321 320 317 311 302 309 325 324 322 320 319 316 303 302 304 311 321 318 319
320 325 323 321 321 319 319 317 315 318 322 324 326 327 327 330 328 324 324 325 324 322 321 321 320 321 318 309 302 302 314 316 322 320 317 310 300 300 302 312 300 303 312
319 326 323 320 320 319 318 317 316 319 322 323 326 326 326 326 325 324 323 324 323 323 322 321 320 318 318 313 304 304 310 310 320 319 309 300 300 300 301 299 301 306 320
321 325 323 320 319 319 319 319 319 320 322 325 325 325 326 324 324 324 324 324 323 323 323 322 320 318 318 318 317 314 314 307 309 303 304 307 309 308 309 309 311 322 321
321 324 323 321 320 320 318 321 319 319 322 325 325 323 326 325 323 319 316 321 319 326 326 325 323 320 318 320 315 317 320 319 313 312 314 313 315 315 316 317 318 320 322
322 323 325 322 321 321 320 321 320 319 322 325 325 324 325 326 324 315 311 298 298 302 309 310 319 322 313 304 305 306 305 303 303 317 317 315 314 318 318 318 318 320 318

GFSMW_sfc_thetae_024.txt.gz
Theta_e
314 314 313 316 318 317 318 324 334 335 338 336 337 335 330 330 329 330 333 333 333 333 330 329 328 327 326 325 323 322 322 321 323 320 318 317 321 321 321 323 323 326 327
310 313 314 315 316 319 325 327 334 338 339 339 337 333 331 328 329 330 333 333 332 332 330 327 326 325 324 323 321 321 317 318 320 316 316 314 317 320 322 322 323 322 323
310 311 313 312 315 323 328 333 337 338 338 337 334 329 327 326 325 327 328 329 331 330 329 326 325 324 323 321 320 319 318 315 316 317 314 311 308 314 318 321 321 322 321
309 311 312 311 320 325 332 337 337 338 338 337 332 330 324 323 323 325 326 327 330 330 329 328 326 324 322 321 321 322 318 316 313 315 319 316 315 311 307 314 318 320 322
309 309 309 315 324 330 333 338 337 337 335 333 330 328 324 323 323 325 326 325 326 328 329 326 325 323 322 321 322 321 319 318 315 314 314 314 315 318 311 307 311 317 319
307 308 318 326 327 331 336 336 335 332 331 329 327 324 324 323 323 323 323 322 322 324 326 326 323 323 322 322 322 322 321 319 318 317 316 314 313 314 314 309 309 311 317
314 320 322 325 328 332 333 332 331 328 328 326 325 324 324 323 323 323 322 321 321 322 323 323 322 322 323 323 323 322 320 320 320 319 318 318 315 314 314 314 311 311 318
319 320 323 326 329 331 330 329 328 327 326 326 324 324 324 324 323 322 322 322 322 322 323 323 322 323 325 326 325 322 322 322 321 319 319 318 317 314 316 317 314 312 316
319 321 325 327 328 327 328 326 326 325 325 326 325 324 325 324 323 322 322 322 322 323 322 324 324 325 327 327 325 323 322 322 320 321 320 320 319 318 317 318 318 314 310
319 322 325 326 326 326 326 325 325 324 325 325 325 325 325 325 324 323 323 323 321 323 324 323 325 326 325 325 324 322 324 323 323 323 323 322 320 320 321 320 320 318 315
319 322 324 325 325 327 325 324 324 324 325 324 324 324 324 324 323 322 322 322 321 322 323 324 325 325 324 323 322 324 325 325 324 323 321 321 321 320 321 322 321 319 318
319 323 324 324 325 325 324 323 323 324 324 324 323 323 323 322 322 322 322 321 320 322 323 324 327 326 326 324 323 325 326 322 323 322 321 319 324 321 321 318 319 319 318
321 322 323 324 324 324 324 323 323 322 324 325 324 326 325 322 321 322 322 320 319 321 326 322 325 325 325 324 324 326 326 323 322 322 321 319 321 324 322 321 320 319 320
320 321 322 323 324 325 324 323 322 322 325 326 327 324 323 322 321 322 321 320 320 324 324 326 328 326 325 326 328 328 326 323 322 321 321 321 324 323 322 321 320 320 319
319 320 320 322 322 323 323 323 321 321 324 326 327 325 325 323 322 322 321 326 324 325 326 327 323 321 321 319 321 325 323 322 321 322 324 325 324 322 321 322 320 319 318
319 320 321 322 322 322 322 321 320 319 324 326 326 327 327 324 324 321 320 321 321 323 325 323 320 318 318 303 307 319 322 323 322 320 322 322 319 316 313 314 315 319 319
319 320 321 322 322 322 321 318 318 322 324 327 329 328 325 324 323 324 322 319 324 323 325 319 316 315 313 302 302 312 323 321 322 323 322 321 319 318 317 310 310 311 311
320 321 322 322 322 321 318 317 321 323 324 327 329 326 323 322 322 321 318 319 320 320 320 317 316 314 314 302 302 310 322 321 324 324 322 320 320 319 321 320 319 320 319
321 322 323 322 319 318 317 319 320 322 323 325 325 325 323 321 323 323 319 319 320 318 319 318 316 315 313 301 303 316 321 321 324 325 323 322 320 304 307 321 318 317 315
319 322 322 321 318 315 318 318 317 319 321 325 323 324 323 323 323 324 320 320 320 322 322 319 317 312 315 300 302 316 323 321 322 323 319 309 314 301 306 320 319 316 316
320 322 321 319 317 317 318 316 315 315 321 324 325 322 322 322 322 321 320 321 321 321 322 319 316 315 314 310 302 308 321 322 322 321 319 315 300 300 303 309 319 315 316
321 322 319 317 317 317 317 315 313 316 322 324 323 322 323 325 324 321 322 322 321 319 318 317 316 316 315 305 300 303 310 312 322 320 319 310 298 300 301 310 298 301 310
321 321 318 317 316 316 317 314 315 317 322 322 322 322 324 324 322 321 321 320 319 318 317 317 317 315 315 314 301 301 303 306 317 318 311 299 298 298 301 299 300 305 317
322 321 318 316 315 314 317 317 315 319 323 322 323 323 323 321 321 322 322 321 319 318 319 318 315 315 315 316 314 312 311 305 309 305 308 305 306 303 306 307 309 319 317
319 322 318 317 316 315 316 317 316 321 323 323 323 323 322 321 319 316 317 322 322 321 321 320 318 316 315 317 310 313 316 314 309 309 313 316 317 315 315 316 315 317 317
316 320 319 319 318 317 316 319 316 323 323 321 323 323 322 320 318 312 308 298 300 300 305 309 315 319 310 302 302 303 301 299 300 313 314 312 314 316 317 316 315 315 314

GFSMW_sfc_thetae_027.txt.gz
Theta_e
311 312 313 314 313 314 313 315 322 327 333 332 331 331 332 331 331 334 335 334 334 333 330 328 326 325 324 324 322 320 320 318 321 319 316 320 320 318 319 320 321 324 327
309 310 311 312 312 314 314 314 321 329 332 334 334 330 331 327 329 331 333 334 334 332 329 327 325 325 323 322 321 324 316 316 320 314 313 312 316 320 320 319 321 321 325
307 308 310 311 311 312 316 319 324 330 332 330 329 327 327 326 325 326 327 330 332 330 329 327 325 324 323 321 319 318 316 314 314 315 312 308 306 314 320 320 320 321 320
307 307 309 309 309 312 322 328 331 332 333 332 328 328 326 325 322 326 326 326 329 329 328 326 324 323 321 319 319 320 317 315 312 314 316 313 312 311 308 317 319 319 319
305 306 307 307 308 318 328 332 334 333 332 329 330 326 323 322 324 326 324 324 325 327 327 326 324 322 320 320 319 319 317 316 315 313 312 312 313 313 311 309 314 316 317
304 305 309 312 320 330 333 333 333 330 330 328 326 326 323 323 323 322 322 321 321 323 325 325 323 322 320 320 320 320 319 318 317 315 314 312 311 311 313 311 308 311 316
303 309 314 320 326 332 331 331 331 326 326 325 324 325 323 323 322 323 322 320 319 320 321 322 321 320 320 321 320 320 320 319 317 317 315 315 313 314 317 312 310 310 317
314 317 320 323 328 329 327 330 328 323 324 323 322 322 322 322 321 322 322 320 320 321 322 322 321 321 322 322 321 321 320 320 319 318 317 316 316 313 314 315 311 309 314
316 319 323 325 327 325 324 327 324 323 323 322 322 322 322 322 321 321 321 321 320 322 322 321 321 322 323 324 323 322 321 322 321 319 317 316 316 315 314 319 318 313 311
317 321 324 324 325 324 323 324 324 323 322 322 323 323 322 322 321 321 321 320 320 320 321 321 322 322 324 323 323 321 322 322 322 320 320 318 317 317 315 315 317 315 312
318 322 323 323 324 323 323 322 323 323 322 323 323 322 322 322 321 321 321 320 319 321 321 322 323 324 323 322 320 322 324 324 323 323 319 319 319 318 319 319 316 315 314
320 321 322 323 323 322 322 322 323 323 322 323 322 321 321 320 319 320 320 320 319 321 321 322 324 325 324 322 321 322 325 323 322 322 320 318 320 317 318 319 317 316 316
320 321 322 323 323 322 322 322 322 322 321 322 321 320 320 319 319 320 320 318 318 319 320 321 321 324 324 323 323 325 325 322 322 321 321 318 320 322 320 319 319 319 320
320 321 321 322 323 323 323 322 321 323 322 322 321 320 319 319 319 320 319 317 318 319 322 324 326 325 324 324 327 327 325 322 321 321 321 320 323 321 321 320 320 320 319
319 320 320 321 322 321 322 322 320 321 323 322 321 320 323 321 320 320 318 319 319 323 326 326 322 321 320 316 320 325 321 321 321 322 324 324 324 321 320 320 320 319 318
319 320 321 322 322 321 321 321 320 320 323 322 325 325 325 321 319 319 319 319 320 323 325 321 320 317 317 301 309 318 322 323 321 321 322 321 319 316 313 314 315 318 319
319 320 321 322 322 322 322 318 319 319 322 326 326 326 323 321 321 320 318 317 321 323 323 318 316 314 314 300 305 310 321 320 322 322 321 321 319 319 318 310 310 311 310
319 320 321 322 321 321 320 317 318 320 324 326 326 324 322 321 320 320 317 318 320 323 319 314 314 313 313 300 303 309 321 323 323 322 321 320 319 318 319 320 319 319 319
320 321 322 322 321 318 317 317 318 320 323 326 324 323 321 319 319 316 316 316 316 316 315 315 314 314 314 300 303 314 323 323 322 321 322 321 319 303 306 318 315 315 312
319 320 322 322 321 317 316 317 318 320 320 324 324 322 320 319 319 318 317 317 317 317 319 316 315 311 316 300 303 314 323 322 320 320 317 307 311 301 305 319 316 314 315
318 320 321 319 319 315 316 316 317 318 321 324 326 321 320 320 320 319 318 319 318 320 318 316 314 314 313 311 302 306 322 322 320 319 317 312 299 300 301 308 318 314 316
319 321 320 318 314 317 317 313 315 319 321 323 322 320 319 322 321 319 319 320 318 317 315 314 314 314 318 304 300 301 309 313 321 319 318 309 297 298 298 306 298 301 308
320 321 319 315 315 317 317 313 315 316 320 320 319 318 320 321 320 319 318 318 317 316 315 316 316 315 317 314 299 299 299 303 316 320 310 297 295 297 299 297 299 305 314
319 318 316 315 313 314 315 316 313 318 320 319 318 319 320 318 319 320 319 318 316 316 316 316 315 313 314 314 314 312 309 304 308 305 307 305 303 302 303 306 309 316 315
319 317 317 315 315 315 314 313 315 320 319 320 320 320 319 319 318 316 316 319 318 317 318 316 315 314 314 315 309 311 314 314 309 311 314 317 316 314 315 316 314 314 314
315 318 317 316 316 316 315 313 318 320 320 319 320 319 319 318 317 313 310 298 300 301 305 305 312 316 306 298 297 298 299 297 299 316 317 317 317 316 316 316 316 313 312

GFSMW_sfc_thetae_030.txt.gz
Theta_e
310 309 311 312 312 312 313 313 314 325 332 330 328 328 330 331 331 333 334 334 334 333 332 331 330 328 328 327 326 325 325 323 325 322 321 322 324 324 324 326 326 327 330
305 308 309 310 310 312 312 312 314 324 331 333 330 330 330 331 331 333 334 335 334 334 332 330 328 328 326 326 325 326 321 322 323 319 317 315 319 323 324 323 325 326 329
304 307 309 308 309 309 312 314 314 324 328 330 328 327 327 327 326 329 330 333 334 334 332 330 329 327 327 326 325 324 322 319 320 321 318 312 311 316 322 322 324 325 326
305 306 306 307 309 309 311 315 320 327 330 330 327 328 325 324 325 328 329 330 332 331 329 329 328 327 327 325 324 323 321 320 317 319 319 319 318 314 313 318 321 324 324
302 303 305 306 307 307 312 323 327 330 330 329 330 328 324 323 327 327 327 327 328 329 329 328 328 327 325 324 323 323 321 320 319 318 317 317 318 318 316 312 315 321 323
301 302 304 309 314 325 329 331 329 327 328 329 326 326 324 325 325 324 325 325 324 326 328 329 327 326 324 323 323 323 323 321 321 319 319 318 317 316 317 314 312 314 320
301 301 303 317 324 329 330 331 329 325 325 326 325 325 325 325 325 325 323 323 322 322 324 326 324 323 324 324 324 323 323 322 321 321 319 320 319 320 321 316 313 315 319
299 305 316 322 328 328 330 328 326 324 324 325 324 324 325 325 325 324 324 323 323 324 324 325 325 324 324 324 324 324 324 324 323 322 321 321 320 319 321 318 317 314 316
299 314 322 326 328 328 326 325 324 322 323 323 323 323 323 323 323 322 323 322 323 324 324 325 324 323 325 325 325 324 324 324 324 323 323 321 321 321 320 322 321 319 313
314 320 322 325 323 323 323 323 323 322 322 323 323 323 323 323 323 323 322 323 323 324 323 323 324 325 326 326 326 325 325 324 324 324 322 321 322 321 320 321 320 321 318
318 321 322 324 321 322 322 322 322 322 322 323 323 323 322 323 323 323 322 323 322 322 323 324 325 326 326 325 324 325 325 324 323 324 323 323 323 322 321 320 321 321 320
319 321 322 323 321 321 322 321 322 322 322 323 323 322 322 322 321 322 322 321 321 323 324 325 326 327 326 325 324 323 325 324 322 323 322 322 322 322 323 322 321 321 322
318 321 322 321 321 320 321 322 322 322 323 323 321 321 320 320 320 321 322 321 322 323 324 323 324 326 326 325 325 324 325 323 322 322 322 322 322 322 322 322 321 322 322
320 321 322 320 321 321 322 322 321 322 322 322 321 320 320 320 321 322 321 320 321 321 323 324 327 326 325 324 325 327 326 323 322 323 322 321 324 322 323 322 321 322 322
320 320 320 320 320 320 321 322 322 322 322 322 321 320 320 321 321 321 320 320 321 323 326 327 324 323 321 316 320 326 324 322 322 324 323 324 325 321 321 322 322 322 320
319 320 321 321 320 321 321 321 321 321 322 322 321 323 324 321 321 321 320 321 323 326 326 323 322 320 317 302 309 319 324 323 323 323 324 323 319 317 313 315 315 320 319
320 320 321 322 322 321 322 320 320 321 322 324 325 325 323 321 321 321 321 319 322 325 324 320 319 318 317 300 307 310 323 324 323 322 322 321 319 319 318 310 310 310 310
320 320 321 322 322 321 320 320 319 321 323 324 325 324 323 321 321 320 319 321 324 324 322 318 317 318 314 302 303 308 325 325 323 321 321 319 319 318 319 320 319 319 320
320 321 322 321 320 320 319 319 318 321 324 325 324 324 322 321 320 319 317 319 321 320 319 318 317 319 317 301 303 317 324 322 321 322 321 321 319 304 306 318 316 315 313
319 320 321 320 319 318 318 318 318 320 322 325 324 324 322 320 320 318 318 320 320 320 320 317 318 312 318 301 302 316 324 320 319 318 316 306 312 301 304 318 317 314 315
319 320 320 320 320 316 318 317 318 319 323 326 325 323 321 320 321 319 321 321 321 321 319 317 318 319 316 311 301 307 323 321 319 317 316 311 300 300 302 308 318 314 317
319 321 320 318 317 317 318 316 318 321 323 326 323 321 320 322 322 320 321 322 321 319 317 316 316 317 318 305 300 304 309 312 320 318 316 305 297 298 299 308 299 301 311
319 321 321 317 315 317 319 316 318 320 322 322 321 320 321 322 321 321 320 320 321 319 317 318 317 316 319 314 299 298 300 306 319 319 305 296 295 296 298 297 298 305 318
320 320 318 316 314 317 317 319 316 320 321 320 320 320 320 320 321 322 322 321 319 319 317 317 317 318 319 317 314 311 311 304 308 303 306 303 303 304 303 308 313 318 319
319 318 317 317 316 316 316 315 317 321 320 320 320 320 320 321 320 319 319 321 321 319 320 319 318 317 319 318 311 312 318 318 311 311 315 317 315 313 315 317 318 317 317
317 317 317 316 316 316 315 314 319 321 320 319 320 320 320 320 320 317 312 296 301 303 304 302 313 318 305 297 297 297 297 298 301 317 317 317 316 315 316 316 317 318 314

GFSMW_sfc_thetae_033.txt.gz
Theta_e
316 319 322 324 327 332 333 337 333 334 333 337 337 338 337 340 340 341 342 342 342 342 341 338 339 338 335 338 340 340 337 335 334 329 329 331 334 335 334 335 334 335 336
313 317 320 324 326 329 332 335 332 332 337 338 340 341 341 339 339 340 343 344 342 342 341 340 338 339 336 341 339 338 331 330 330 328 325 321 326 330 332 333 333 335 335
313 316 318 322 326 327 330 331 332 332 339 342 341 341 340 336 336 338 337 340 341 342 341 341 339 339 340 338 340 336 332 331 326 328 326 320 318 325 329 330 330 330 332
312 314 317 320 324 326 326 326 330 332 337 343 341 340 339 334 337 336 337 337 342 342 341 340 340 341 338 334 336 337 332 332 327 324 327 327 326 320 320 327 329 327 333
311 311 313 317 321 322 322 326 332 336 338 341 342 340 340 340 341 340 339 340 343 342 340 341 342 340 334 335 338 336 333 331 329 326 325 325 326 329 325 317 320 324 329
309 311 313 316 316 323 333 335 336 339 339 340 342 342 341 339 338 339 338 339 340 340 341 341 341 340 336 337 335 335 334 332 330 329 328 325 323 323 325 322 316 318 325
311 313 314 314 321 331 334 333 337 337 340 340 340 341 341 341 341 340 337 336 336 337 338 340 339 337 337 336 336 335 334 333 330 331 328 328 327 328 329 324 320 319 321
312 312 312 322 329 333 333 334 338 338 339 339 339 339 341 340 340 340 339 336 336 337 340 339 337 336 336 335 335 333 333 333 332 331 331 329 329 328 327 326 321 317 319
315 313 322 330 332 332 333 339 338 338 338 337 337 338 339 339 337 339 339 337 338 337 337 337 336 336 335 335 335 333 334 334 329 332 333 330 330 329 328 327 328 325 316
316 322 326 329 330 333 338 339 338 337 337 337 337 336 337 338 337 338 336 337 338 337 336 335 335 334 334 335 337 335 335 334 327 328 332 332 330 331 330 328 327 328 326
319 323 325 329 331 336 336 336 335 335 335 335 335 335 335 336 336 336 336 336 336 336 334 333 333 334 335 336 335 335 334 328 326 325 330 330 332 329 329 329 325 329 329
320 323 326 329 332 334 334 334 335 334 334 334 334 334 335 335 335 334 335 335 334 333 333 333 333 333 333 334 333 332 329 326 324 323 326 329 330 332 332 328 327 327 330
321 323 325 328 331 332 332 332 332 332 333 333 333 333 333 334 334 334 333 333 332 333 333 333 331 331 333 333 333 329 326 325 325 325 325 329 330 331 329 330 328 328 328
321 323 324 328 331 332 330 330 330 331 332 331 331 331 332 333 333 333 332 332 332 332 332 332 332 333 333 331 331 330 328 325 326 324 327 329 330 330 330 327 328 328 327
321 322 323 327 330 330 330 330 330 330 331 329 329 331 332 333 332 331 331 331 332 331 331 332 332 332 329 325 327 330 328 326 322 326 324 329 329 323 325 327 327 329 325
321 323 324 327 329 329 329 329 329 329 330 329 329 330 331 331 331 331 330 330 330 333 331 332 330 328 327 302 309 322 327 325 324 325 327 327 322 319 314 315 317 325 325
323 324 326 329 330 329 330 329 329 330 330 329 329 330 330 329 330 329 329 329 331 331 328 331 329 328 329 302 305 311 328 328 325 324 323 323 323 322 322 310 311 311 310
324 328 330 330 331 331 330 331 330 329 329 329 329 329 329 328 329 328 328 331 331 330 327 330 329 330 322 302 302 308 328 327 326 323 323 321 322 321 322 323 322 322 324
328 330 331 331 331 330 331 330 328 329 329 330 330 330 329 328 328 328 330 332 332 327 328 329 328 330 323 301 302 317 327 325 323 323 323 321 320 305 306 322 319 320 318
329 330 331 331 331 331 331 328 327 328 328 330 330 330 329 328 328 329 330 332 334 331 329 327 329 316 324 300 303 317 325 321 319 319 318 308 314 301 304 322 322 318 317
329 331 330 330 331 330 330 328 328 328 330 332 331 330 329 329 330 330 330 331 331 330 329 327 329 326 322 316 300 308 324 321 321 319 317 311 299 299 302 309 321 316 319
327 330 329 330 331 330 329 327 328 330 330 332 331 329 330 327 329 330 330 331 332 330 328 327 323 322 322 306 301 304 309 313 322 319 316 306 297 298 300 311 299 301 311
326 328 329 329 329 329 330 327 330 330 330 332 329 330 329 329 331 330 331 330 330 328 325 325 322 320 321 315 299 299 301 306 321 321 304 296 296 297 300 298 300 304 320
325 327 326 327 327 329 329 330 330 330 330 331 328 330 329 328 330 330 331 330 329 327 324 323 321 321 321 318 316 316 314 305 309 304 308 303 304 303 302 308 312 324 324
324 327 325 327 328 329 328 330 329 330 330 330 326 330 329 329 330 330 329 331 332 327 327 325 324 322 321 320 313 317 322 321 314 311 318 317 317 316 317 319 322 322 324
323 324 325 327 328 327 328 328 329 330 331 330 328 328 329 329 329 327 324 296 301 300 301 304 317 325 306 299 299 299 298 298 300 318 318 317 317 318 319 320 322 324 320

GFSMW_sfc_thetae_036.txt.gz
Theta_e
322 323 324 326 327 331 339 343 345 351 342 337 339 342 341 344 345 346 349 348 348 347 347 343 343 341 337 338 341 340 342 341 341 336 333 333 337 337 336 338 340 340 338
318 320 323 324 327 332 339 343 346 347 344 339 344 344 345 345 346 346 346 348 348 347 345 346 343 342 336 338 340 342 342 340 339 332 330 323 328 332 334 338 340 339 341
316 318 320 323 325 329 337 337 342 343 345 346 346 347 348 347 344 343 343 344 346 345 344 344 344 342 339 336 346 345 341 334 336 337 329 323 320 328 332 334 337 338 339
316 317 319 321 324 326 330 334 339 340 342 349 350 351 343 340 342 344 341 342 344 343 343 346 344 343 339 345 342 342 341 340 332 331 332 332 329 323 322 330 333 336 335
315 316 318 320 322 325 327 334 336 337 342 347 350 346 346 344 346 344 338 342 344 344 346 347 346 344 344 346 343 341 341 338 332 330 328 330 329 330 325 321 327 331 335
314 316 318 320 321 324 325 329 337 341 344 347 348 349 348 347 344 345 340 342 343 345 346 346 347 348 346 344 341 342 340 336 334 331 330 327 327 325 327 326 324 325 327
315 317 318 319 321 324 328 336 341 342 345 346 347 348 350 350 349 347 345 345 342 343 346 348 347 344 345 343 342 341 338 336 333 334 329 329 329 330 330 330 324 322 323
316 318 322 321 319 324 335 339 340 342 344 346 347 350 351 348 347 349 346 344 342 343 347 346 345 344 343 341 341 336 335 337 335 334 333 335 333 331 330 329 327 321 321
323 324 325 323 329 336 339 342 343 344 345 347 348 349 350 350 348 348 347 343 345 343 345 345 343 342 341 340 339 334 336 336 337 333 334 334 338 337 330 331 331 326 318
325 325 327 330 336 340 344 345 346 345 346 347 347 347 348 348 347 346 342 343 344 343 344 343 342 340 338 338 339 336 338 337 335 331 334 336 337 338 333 332 332 333 325
325 328 331 333 336 343 344 345 345 345 345 345 345 345 345 344 344 342 343 344 344 343 340 339 337 336 336 338 339 339 337 334 332 328 326 331 335 336 333 333 329 336 333
323 325 328 332 339 341 342 342 343 343 343 344 343 343 341 341 342 342 342 343 341 339 335 334 334 335 336 337 336 334 334 328 325 326 326 331 333 335 336 335 328 333 336
324 326 328 331 334 338 340 341 341 341 341 341 340 340 341 341 341 341 341 339 337 335 334 335 335 334 334 335 335 334 333 326 326 326 326 330 332 333 335 334 330 334 335
326 325 327 330 333 337 338 338 338 338 338 337 337 338 338 339 339 339 338 336 335 335 335 335 333 334 335 333 333 334 332 329 325 328 329 331 333 334 335 332 334 336 331
320 324 326 329 331 332 335 336 335 335 335 333 333 334 336 337 336 335 335 335 335 334 333 334 334 335 334 330 334 332 329 326 328 325 327 333 330 323 328 332 334 334 328
314 325 326 328 329 331 333 334 333 332 331 330 331 334 335 335 334 334 334 334 333 333 333 333 333 333 331 305 310 323 331 326 325 328 328 333 326 322 316 316 317 329 329
314 326 326 330 332 331 332 333 331 329 330 330 331 332 333 333 333 332 332 332 333 335 334 334 333 334 334 305 306 311 331 326 326 326 327 325 327 326 329 312 311 312 313
316 328 329 332 333 332 334 333 329 329 329 330 330 331 331 331 331 331 331 333 334 335 335 334 334 335 327 304 303 309 332 328 326 326 325 326 328 327 326 327 327 328 328
324 331 333 334 333 333 334 330 327 329 329 329 330 330 330 330 329 329 332 333 334 333 334 334 334 334 331 303 303 315 330 325 323 324 324 324 327 308 306 327 327 328 323
331 331 333 335 335 334 333 328 328 328 329 329 329 330 330 330 330 331 332 334 333 332 331 333 335 319 329 301 303 316 325 322 319 321 321 309 320 300 305 327 325 321 322
332 333 335 333 334 334 332 326 328 328 329 330 331 331 331 330 331 332 334 334 333 333 333 332 333 329 327 321 302 308 326 322 321 320 318 316 299 299 302 312 325 320 322
332 332 332 332 333 333 329 326 328 330 331 332 331 331 331 330 330 333 333 334 335 333 333 332 328 327 327 309 304 305 310 313 325 321 317 307 297 298 301 313 299 301 311
331 333 332 331 332 331 328 328 331 331 332 332 331 331 331 331 332 333 333 334 336 335 331 330 328 325 323 317 299 300 302 305 324 322 302 296 295 297 301 299 300 305 319
329 332 330 328 327 328 328 330 332 332 332 332 331 331 331 331 332 332 335 336 335 331 329 328 327 325 321 319 322 319 321 306 310 306 309 303 303 304 306 311 313 323 323
331 331 328 326 326 327 329 331 332 332 331 332 331 331 331 332 331 334 332 336 336 326 330 331 329 324 322 320 316 318 325 324 314 315 318 316 315 314 316 318 322 326 324
328 332 329 327 324 325 328 330 331 332 333 331 330 328 329 330 330 330 329 298 299 298 299 300 316 327 309 301 300 299 298 299 300 319 320 318 317 316 318 320 321 324 320

GFSMW_sfc_thetae_042.txt.gz
Theta_e
322 327 328 334 332 344 349 349 349 351 355 352 345 341 341 342 347 350 354 357 354 351 350 346 349 346 342 340 342 341 339 335 335 337 335 336 338 335 335 338 338 336 337
321 322 326 334 341 344 345 346 349 352 352 347 344 347 345 340 345 351 354 357 355 352 351 348 346 345 344 342 344 340 333 333 338 333 331 324 327 332 335 334 336 334 336
317 321 326 332 340 340 343 345 346 347 349 345 345 347 347 353 354 351 352 354 353 352 349 348 346 346 343 340 342 339 336 330 339 338 330 321 318 324 331 331 332 334 334
317 317 322 327 334 337 341 347 346 345 345 349 346 344 340 339 347 351 351 351 352 351 349 347 347 349 342 343 339 339 335 337 333 334 335 333 329 320 318 328 330 333 333
317 316 317 321 327 330 331 337 344 346 345 346 347 342 345 346 354 353 353 349 352 349 347 346 346 345 343 343 338 339 340 340 335 331 331 330 329 328 322 317 322 329 331
316 318 320 320 320 324 328 335 337 338 345 347 351 349 348 347 346 349 346 344 345 343 344 344 344 344 344 345 342 343 340 337 335 333 332 328 324 323 322 320 321 321 325
317 318 319 319 320 321 322 325 336 338 346 344 349 346 351 348 355 346 343 341 340 340 341 342 343 344 345 346 344 341 339 338 336 334 331 329 330 329 327 324 321 319 324
315 318 319 322 320 323 326 330 334 339 343 342 343 348 348 350 349 345 342 341 339 340 345 344 346 346 345 343 343 340 340 339 336 334 333 332 332 330 327 325 322 317 319
314 318 321 321 322 325 331 332 334 336 339 343 346 349 351 352 348 347 345 344 344 344 345 347 346 344 343 341 342 340 337 337 336 334 334 333 332 330 330 327 326 321 313
316 320 324 328 332 336 333 335 338 342 347 348 350 350 353 354 351 350 347 346 347 346 347 345 344 342 341 341 340 337 337 335 335 334 333 330 330 330 331 329 328 326 322
314 320 327 331 332 339 342 345 344 346 346 346 348 350 351 351 351 348 346 346 347 345 344 342 339 337 338 340 338 336 336 333 333 332 331 329 329 331 330 330 328 326 325
325 326 329 335 335 335 340 344 345 342 344 348 349 349 347 347 345 343 342 344 343 343 341 340 338 338 336 336 336 334 334 332 331 330 326 323 326 329 330 330 327 327 327
327 326 328 331 334 338 338 339 342 343 344 343 343 342 340 340 341 341 342 343 341 342 338 337 335 334 335 333 336 336 334 333 331 328 324 325 326 327 329 329 327 328 328
325 327 330 334 336 336 337 339 339 341 340 340 340 339 341 342 342 342 343 340 339 337 337 336 334 334 333 334 335 335 334 332 329 327 326 327 328 329 328 328 327 328 326
321 326 330 334 334 333 335 337 338 339 339 338 339 340 342 342 341 340 339 337 337 333 334 333 333 332 330 328 334 335 333 330 326 326 326 329 328 324 327 330 329 328 326
312 326 328 331 329 332 332 334 335 335 339 337 338 339 338 338 338 338 332 331 334 334 332 332 332 328 326 306 311 328 329 329 327 326 325 328 320 317 316 318 320 325 326
309 323 327 330 333 332 332 331 335 336 335 334 333 333 333 331 331 333 332 332 334 335 333 333 333 331 324 306 308 318 331 327 326 327 327 329 328 325 326 312 314 314 315
309 321 330 332 334 333 331 332 333 332 331 330 329 331 331 331 331 331 331 331 335 336 335 334 334 329 320 307 307 309 330 327 325 326 327 329 329 326 328 329 328 328 325
323 325 332 333 334 333 330 331 329 329 328 328 330 330 330 330 330 331 331 333 335 334 334 334 333 329 323 304 306 318 329 324 323 325 327 328 326 310 309 328 325 323 320
321 327 331 333 336 331 329 329 328 328 327 329 329 331 330 329 330 332 331 334 334 334 333 333 333 318 324 302 307 321 327 323 322 322 323 306 320 303 305 326 324 321 320
323 325 330 330 334 333 331 329 328 327 330 331 330 331 329 331 332 332 334 335 333 333 332 332 330 328 325 317 307 310 323 322 321 320 321 317 299 302 303 313 325 320 320
323 327 328 332 334 331 330 328 329 331 331 330 329 330 331 327 332 332 331 335 335 332 330 328 326 326 324 311 305 302 310 314 322 320 319 308 298 299 302 311 300 303 312
325 329 329 333 331 330 330 331 331 332 331 331 330 330 332 328 333 329 330 334 333 331 330 329 325 323 324 318 299 300 302 307 321 319 304 297 296 297 301 299 301 308 318
323 329 332 328 327 329 332 332 332 332 331 330 329 331 329 331 331 331 335 332 331 331 330 328 325 323 323 322 318 318 315 305 307 305 309 305 306 306 308 310 315 321 319
326 330 328 326 328 328 331 331 331 331 329 330 329 329 329 331 328 319 318 326 314 318 331 329 326 322 321 321 312 318 320 319 310 314 317 316 316 316 319 320 320 320 320
326 327 328 327 326 327 331 331 332 331 330 330 327 327 329 330 331 326 319 297 297 295 297 309 322 325 307 297 298 300 300 300 301 316 315 315 316 318 320 320 319 319 317

GFSMW_sfc_thetae_045.txt.gz
Theta_e
316 317 318 319 325 328 333 332 332 336 344 341 340 338 338 336 338 340 341 344 348 344 342 340 339 339 335 332 331 329 327 328 328 326 327 330 332 331 331 330 330 332 333
312 315 316 318 318 324 332 332 331 333 339 339 335 332 331 332 333 337 341 343 347 347 343 341 340 337 336 332 332 331 327 327 326 322 324 319 322 327 328 329 330 329 332
310 313 315 317 319 326 332 332 332 333 334 334 333 332 332 331 335 336 338 342 346 346 345 341 340 338 336 334 332 330 326 323 324 330 324 319 317 319 323 324 325 328 329
309 311 312 315 320 326 330 330 332 333 335 335 330 331 330 329 328 336 340 342 345 345 344 342 340 340 338 334 333 332 328 327 324 328 330 328 326 314 312 321 324 327 327
307 309 309 310 314 324 324 330 333 332 331 334 333 332 329 331 333 338 340 340 341 343 343 341 339 339 340 338 334 331 329 329 328 326 328 326 322 320 316 311 317 322 324
308 308 310 310 311 313 319 319 328 331 330 332 335 332 332 333 335 339 338 337 337 339 342 343 342 340 339 338 334 333 331 331 330 330 326 322 321 318 317 313 314 315 318
305 308 309 310 312 311 312 315 322 327 333 332 336 334 333 334 336 339 337 336 334 334 336 339 339 340 340 338 335 334 332 330 329 326 324 322 322 322 320 318 317 313 317
304 306 308 311 312 313 312 312 313 322 330 333 339 338 336 342 340 340 338 336 335 334 337 339 339 340 340 337 337 335 331 330 329 326 324 323 323 323 321 321 317 310 312
305 306 308 310 312 313 314 314 315 320 334 334 336 338 335 341 339 337 337 336 335 337 339 340 337 339 339 337 335 333 330 329 327 326 325 324 325 325 323 325 321 314 307
308 307 307 309 310 311 315 317 323 330 332 333 334 338 340 343 339 338 336 336 335 337 338 338 339 337 336 334 331 329 328 328 327 326 326 324 323 323 325 325 321 318 313
307 310 310 319 321 320 321 320 327 332 335 338 339 340 342 343 341 340 339 338 338 339 339 339 336 335 335 334 328 327 329 326 325 325 326 324 323 323 327 323 321 319 318
305 309 312 324 329 329 331 330 335 337 339 340 340 341 342 344 342 340 341 341 338 339 338 336 335 334 332 332 329 328 329 325 324 324 324 323 324 320 326 322 320 319 319
306 307 316 318 327 328 335 336 337 338 340 342 341 340 339 339 337 338 337 339 336 334 334 332 331 332 330 330 330 328 327 326 325 325 322 321 321 318 322 322 321 320 322
304 307 307 317 327 328 333 336 336 340 341 340 338 335 336 337 336 336 336 335 334 332 329 328 329 332 332 332 331 329 326 325 324 324 323 325 324 320 321 324 321 321 322
301 305 312 322 326 331 334 336 336 338 339 336 337 336 336 336 336 335 333 331 327 327 328 329 329 327 327 329 329 328 326 324 322 322 324 325 326 323 325 325 323 321 321
303 309 322 324 328 328 333 335 336 336 338 336 335 336 334 333 331 328 330 328 327 327 328 327 326 324 323 306 315 323 324 323 324 320 323 323 319 318 317 319 320 323 321
303 309 323 325 324 326 332 332 335 336 335 334 334 334 332 330 330 326 327 327 327 327 329 328 325 320 315 305 308 318 323 322 322 320 322 324 326 321 319 312 314 315 313
313 319 323 324 326 328 331 333 334 333 332 330 329 327 329 326 325 327 326 327 327 327 329 328 324 317 314 305 309 313 324 323 323 323 323 322 322 322 323 324 322 320 319
314 316 324 320 317 323 330 328 327 327 326 325 326 326 326 325 327 326 326 327 326 323 324 325 321 316 315 304 308 318 322 322 321 321 319 322 322 303 310 322 320 319 317
316 319 323 325 323 327 327 325 323 323 323 325 327 327 329 327 327 327 328 327 324 325 327 326 322 313 315 302 311 320 321 320 320 320 319 304 315 303 306 323 321 317 317
316 322 323 323 329 325 325 322 321 320 326 327 327 326 326 327 327 328 327 324 324 325 325 322 320 319 316 312 307 311 322 321 320 318 316 311 299 302 304 312 322 317 317
318 322 321 324 327 324 324 321 322 325 326 326 326 326 327 328 328 327 325 325 324 324 323 322 323 322 319 307 306 306 311 313 320 318 314 308 297 299 301 308 300 303 311
321 324 324 326 328 325 325 323 325 325 324 325 325 325 325 326 326 322 325 322 324 324 321 321 320 319 318 308 298 299 304 308 318 318 307 297 297 298 300 298 300 307 318
321 324 326 323 324 326 325 326 327 327 325 324 326 325 327 326 324 325 324 322 323 323 323 320 318 319 317 312 313 311 309 303 306 304 308 306 305 305 306 311 315 318 318
322 324 325 326 324 326 325 326 327 326 325 325 325 324 325 319 315 312 314 321 317 319 325 321 320 319 318 315 314 313 316 314 310 314 317 316 316 315 316 317 318 318 317
323 324 326 324 326 326 327 326 327 327 325 323 324 326 326 322 318 316 312 296 296 296 301 309 317 316 306 299 303 298 299 299 302 315 315 314 315 315 317 317 316 317 315

GFSMW_sfc_thetae_048.txt.gz
Theta_e
310 312 315 315 317 321 323 321 327 333 342 342 342 342 341 341 339 341 342 343 344 340 335 336 333 333 330 330 330 327 327 326 328 325 323 326 330 329 330 329 328 329 332
306 309 312 314 313 316 322 324 326 336 344 344 344 341 342 336 341 342 341 341 344 343 340 336 336 335 333 329 329 328 324 325 325 321 320 317 321 323 328 326 327 328 329
304 307 311 312 312 312 317 327 327 335 343 343 341 330 331 329 329 330 331 335 342 344 341 338 338 336 336 331 329 328 326 323 323 325 322 316 315 319 324 325 323 325 325
302 304 307 308 312 317 321 326 329 329 338 337 334 332 328 325 325 326 333 334 342 343 342 340 339 338 335 333 330 330 326 326 323 326 328 325 323 318 316 320 320 323 325
298 301 304 308 310 315 324 326 326 327 329 331 331 331 323 324 324 330 331 333 338 342 343 340 336 337 335 333 332 331 329 329 327 327 326 324 325 322 316 310 314 320 322
301 302 304 308 309 311 319 325 326 327 328 327 326 324 324 325 327 330 332 333 335 338 340 340 338 338 338 334 333 333 331 329 330 329 327 324 323 321 318 311 312 313 318
301 304 305 303 306 306 311 318 326 327 328 328 328 329 327 327 328 332 333 333 332 333 337 338 338 340 337 336 335 334 332 328 327 327 325 325 323 319 317 314 312 314 316
302 304 306 308 305 307 308 312 316 324 326 326 325 330 330 330 332 336 337 338 337 336 337 336 336 339 340 338 335 332 331 331 330 328 323 321 320 320 319 317 315 312 311
301 304 307 309 313 308 309 310 312 317 320 326 327 328 331 332 336 336 337 335 334 336 335 336 335 339 339 336 332 332 332 331 329 324 322 321 321 322 321 320 318 315 307
300 303 306 308 312 317 311 310 311 313 318 325 329 333 332 338 337 337 334 334 333 335 335 333 334 335 336 333 331 331 331 328 324 323 322 322 322 321 321 322 322 316 311
300 303 305 307 310 313 319 311 310 313 324 328 330 334 335 336 336 335 335 334 333 334 335 336 335 336 335 334 331 327 327 325 323 323 323 322 321 320 321 323 322 316 314
301 303 304 305 310 312 317 321 316 323 328 331 333 335 338 336 335 334 335 335 335 337 337 337 337 336 334 331 327 325 327 324 322 322 322 322 324 323 322 323 319 317 316
302 302 302 304 307 311 317 325 327 329 333 336 336 337 339 337 336 337 337 337 337 336 338 337 335 334 332 329 327 327 326 324 322 322 323 322 322 318 321 320 319 318 319
301 302 302 304 305 310 319 330 332 335 337 338 337 336 338 337 337 337 337 336 337 335 335 332 332 329 329 329 328 326 324 323 323 323 323 322 322 321 320 320 319 318 319
301 302 302 303 305 308 321 329 334 337 338 336 335 333 334 334 334 333 334 334 334 332 329 326 326 328 331 330 329 326 323 321 320 321 322 323 324 324 320 322 319 320 320
302 303 303 306 315 315 326 325 332 333 336 334 333 334 333 334 333 332 329 327 326 325 326 323 323 324 324 307 312 321 321 321 320 321 322 325 321 319 315 317 317 320 320
309 311 316 320 322 325 322 319 329 334 333 333 334 334 333 331 330 328 326 323 322 322 322 323 322 320 315 303 306 313 321 321 321 320 319 323 325 320 320 311 313 311 311
306 311 317 318 319 321 321 321 329 333 333 333 333 332 331 329 325 326 324 322 325 326 324 322 320 316 312 303 306 311 321 321 321 321 322 322 322 319 321 321 320 317 318
306 312 319 319 320 319 321 322 325 332 332 330 331 331 328 325 323 322 324 325 327 327 324 320 316 314 314 303 306 314 320 319 318 318 321 322 319 303 306 321 318 316 316
306 312 318 322 320 319 320 318 328 327 326 326 325 324 325 324 323 325 325 326 325 323 322 319 316 311 316 302 304 314 318 318 318 318 316 306 313 301 304 320 318 316 315
308 316 320 322 321 323 325 325 324 323 325 325 324 324 325 326 327 326 326 325 323 323 320 318 316 315 317 311 303 308 321 320 318 317 314 310 300 299 302 309 320 316 315
311 315 319 320 322 321 324 320 322 324 325 325 325 324 324 326 327 326 325 324 322 320 318 319 317 317 317 305 303 305 309 312 317 317 314 308 298 298 301 309 299 300 310
312 316 321 322 320 322 325 321 323 325 324 323 323 324 324 324 326 324 321 322 322 320 319 318 316 316 315 310 300 301 303 307 317 316 305 296 296 297 299 297 299 305 318
310 317 321 317 319 324 325 323 324 326 324 322 323 323 322 321 322 323 323 323 321 320 319 318 316 315 314 310 311 310 309 303 306 303 307 305 304 304 305 311 314 319 318
313 319 322 323 323 324 324 325 325 325 323 321 323 322 322 319 314 308 311 320 318 320 320 318 318 316 312 310 309 310 314 314 310 312 316 316 316 315 316 317 317 317 317
317 320 322 322 323 326 324 325 326 325 323 322 322 320 317 317 315 312 307 295 297 300 303 306 314 316 304 299 298 297 298 298 300 315 315 314 315 315 315 315 315 316 313